Location: Caltech
(34.1382°N, 118.1253°W)
Time: 13:58:24
(UTC-07:00)

Tiros 1 despin weight - Visible Passes

Search period start: 27 August 2014 00:00
Search period end: 06 September 2014 00:00
Orbit: 601 x 653 km, 48.2° (Epoch: 24 August)

Date Brightness Start Highest point End Pass type
(mag) Time Alt. Az. Time Alt. Az. Time Alt. Az.
27 Aug ? 05:31:39 10° SSW 05:35:55 37° SE 05:40:15 10° ENE visible
28 Aug ? 04:12:36 10° SE 04:14:06 11° SE 04:15:38 10° ESE visible
28 Aug ? 05:50:36 10° SW 05:55:15 81° SE 05:59:59 10° NE visible
29 Aug ? 04:31:40 22° SSE 04:33:12 27° SE 04:37:08 10° ENE visible
30 Aug ? 04:50:38 34° SSW 04:52:28 59° SE 04:57:06 10° ENE visible
31 Aug ? 03:32:16 16° ESE 03:32:16 16° ESE 03:33:48 10° E visible
31 Aug ? 05:09:32 28° WSW 05:11:54 67° NW 05:16:36 10° NE visible
01 Sep ? 03:51:06 33° E 03:51:06 33° E 03:54:07 10° ENE visible
01 Sep ? 05:28:21 16° W 05:31:32 36° NNW 05:35:53 10° NE visible
02 Sep ? 04:09:51 62° NE 04:09:51 62° NE 04:13:46 10° NE visible
02 Sep ? 05:47:37 10° WNW 05:51:20 23° NNW 05:55:06 10° NNE visible
03 Sep ? 04:28:33 45° NW 04:28:36 45° NNW 04:33:07 10° NE visible
04 Sep ? 03:09:57 16° ENE 03:09:57 16° ENE 03:10:53 10° ENE visible
04 Sep ? 04:47:11 24° NW 04:48:20 27° NNW 04:52:21 10° NE visible
05 Sep ? 03:28:34 22° NE 03:28:34 22° NE 03:30:20 10° NE visible
05 Sep ? 05:05:48 13° NW 05:08:14 19° NNW 05:11:34 10° NNE visible
